Weather History for New York, NY

Change the Weather History Date:

Thursday, April 25, 2013

  Actual Average Record
Temperature  
Mean Temperature 57 °F 56 °F  
Max Temperature 67 °F 64 °F 88 °F (1960)
Min Temperature 47 °F 48 °F 36 °F (1971)
Degree Days  
Heating Degree Days 8 9  
Month to date heating degree days 329 335  
Since 1 July heating degree days 4276 4471  
Cooling Degree Days 0 0  
Month to date cooling degree days 0 0  
Year to date cooling degree days 0 0  
Growing Degree Days 6 (Base 50)    
Moisture  
Dew Point 30 °F    
Average Humidity 48    
Maximum Humidity 83    
Minimum Humidity 13    
Precipitation  
Precipitation 0.00 in 0.12 in 1.50 in (2010)
Month to date precipitation 1.12 3.38  
Year to date precipitation 9.39 13.28  
Snow  
Snow 0.00 in 0.00 in - ()
Month to date snowfall 0.0 0.5  
Since 1 July snowfall 22.2 26.9  
Snow Depth 0.00 in    
Sea Level Pressure  
Sea Level Pressure 30.12 in    
Wind  
Wind Speed 13 mph (West)    
Max Wind Speed 28 mph    
Max Gust Speed 35 mph    
Visibility 10 miles    
Events      
T = Trace of Precipitation, MM = Missing Value Source: NWS Daily Summary

Daily Weather History Graph

Daily Weather History Graph

Search for Another Location

Airport:

Trip Planner

Search our weather history database for the weather conditions in past years. The results will help you decide how hot, cold, wet, or windy it might be!

Date:

Astronomy

Apr. 25, 2013 Rise Set
Actual Time 6:01 AM EDT 7:45 PM EDT
Civil Twilight 5:32 AM EDT 8:15 PM EDT
Nautical Twilight 4:57 AM EDT 8:50 PM EDT
Astronomical Twilight 4:19 AM EDT 9:28 PM EDT
Moon 7:56 PM EDT (4/25) 5:42 AM EDT (4/25)
Length of Visible Light 14h 42m
Length of Day
13h 44m
Full, 100% of the Moon is Illuminated
Apr 25
Full
Apr 25
Full
May 2
Last Quarter
May 9
New
May 18
First Quarter

Hourly Weather History & Observations

Time (EDT) Temp. Dew Point Humidity Pressure Visibility Wind Dir Wind Speed Gust Speed Precip Events Conditions
12:51 AM 54.0 °F 48.9 °F 83% 29.88 in 10.0 mi SSW 4.6 mph - N/A   Overcast
1:51 AM 59.0 °F 51.1 °F 75% 29.89 in 10.0 mi WSW 10.4 mph 17.3 mph N/A   Overcast
2:51 AM 60.1 °F 39.9 °F 47% 29.91 in 10.0 mi West 15.0 mph 20.7 mph N/A   Overcast
3:51 AM 57.0 °F 41.0 °F 55% 29.95 in 10.0 mi NW 19.6 mph 25.3 mph N/A   Overcast
4:03 AM 55.4 °F 37.4 °F 51% 29.97 in 10.0 mi NW 21.9 mph 29.9 mph N/A   Overcast
4:51 AM 52.0 °F 33.1 °F 49% 30.01 in 10.0 mi NW 17.3 mph 24.2 mph N/A   Overcast
5:51 AM 50.0 °F 30.9 °F 48% 30.06 in 10.0 mi NW 20.7 mph 28.8 mph N/A   Overcast
6:51 AM 48.0 °F 30.9 °F 52% 30.11 in 10.0 mi NW 21.9 mph 32.2 mph N/A   Scattered Clouds
7:51 AM 48.0 °F 30.0 °F 50% 30.15 in 10.0 mi NW 21.9 mph 32.2 mph N/A   Scattered Clouds
8:51 AM 48.9 °F 28.0 °F 44% 30.17 in 10.0 mi NNW 15.0 mph 23.0 mph N/A   Scattered Clouds
9:51 AM 51.1 °F 27.0 °F 39% 30.18 in 10.0 mi NW 19.6 mph 25.3 mph N/A   Partly Cloudy
10:51 AM 53.1 °F 26.1 °F 35% 30.18 in 10.0 mi WNW 15.0 mph 19.6 mph N/A   Partly Cloudy
11:51 AM 55.9 °F 24.1 °F 29% 30.18 in 10.0 mi NW 13.8 mph 19.6 mph N/A   Partly Cloudy
12:51 PM 57.0 °F 21.9 °F 26% 30.18 in 10.0 mi NW 15.0 mph 19.6 mph N/A   Partly Cloudy
1:51 PM 60.1 °F 19.9 °F 21% 30.17 in 10.0 mi NW 8.1 mph - N/A   Partly Cloudy
2:51 PM 62.1 °F 19.0 °F 19% 30.16 in 10.0 mi NW 8.1 mph - N/A   Partly Cloudy
3:51 PM 63.0 °F 19.0 °F 18% 30.16 in 10.0 mi NW 8.1 mph - N/A   Partly Cloudy
4:51 PM 64.9 °F 17.1 °F 16% 30.16 in 10.0 mi Variable 3.5 mph - N/A   Partly Cloudy
5:51 PM 66.9 °F 14.0 °F 13% 30.16 in 10.0 mi Variable 5.8 mph - N/A   Partly Cloudy
6:51 PM 63.0 °F 25.0 °F 24% 30.17 in 10.0 mi SSW 13.8 mph 17.3 mph N/A   Clear
7:51 PM 60.1 °F 27.0 °F 28% 30.19 in 10.0 mi South 6.9 mph - N/A   Clear
8:51 PM 55.9 °F 28.9 °F 36% 30.22 in 10.0 mi South 8.1 mph - N/A   Clear
9:51 PM 55.0 °F 34.0 °F 45% 30.24 in 10.0 mi SSW 9.2 mph - N/A   Clear
10:51 PM 55.0 °F 34.0 °F 45% 30.25 in 10.0 mi SSW 9.2 mph - N/A   Clear
11:51 PM 55.0 °F 33.1 °F 43% 30.26 in 10.0 mi SSW 8.1 mph - N/A   Partly Cloudy